Mecheria, Algeria

1:20 PM CET on July 17, 2019 (GMT +0100)
Mecheria

Weather History for DAAY - May, 2019

Change the Weather History Date:

Monday, May 20, 2019

  Actual Average (WUND) Record (WUND)
Temperature  
Mean Temperature 64 °F -  
Max Temperature 79 °F - - (-1)
Min Temperature 48 °F - - (-1)
Degree Days  
Heating Degree Days 2    
Growing Degree Days 14 (Base 50)    
Moisture  
Dew Point 49 °F    
Average Humidity 57    
Maximum Humidity 88    
Minimum Humidity 26    
Precipitation  
Precipitation 0.00 in - - ()
Sea Level Pressure  
Sea Level Pressure 30.05 in    
Wind  
Wind Speed 5 mph ()    
Max Wind Speed 12 mph    
Max Gust Speed -    
Visibility 6.1 miles    
Events      
Averages and records for this station are not official NWS values.
T = Trace of Precipitation, MM = Missing Value Source: Averaged Metar Reports

Daily Weather History Graph

Daily Weather History Graph

Search for Another Location

Airport or City:

Astronomy

May. 20, 2019 Rise Set
Actual Time 5:57 AM CET 7:57 PM CET
Civil Twilight 5:29 AM CET 8:25 PM CET
Nautical Twilight 4:56 AM CET 8:59 PM CET
Astronomical Twilight 4:20 AM CET 9:35 PM CET
Moon 9:42 PM CET (5/20) 7:14 AM CET (5/20)
Length of Visible Light 14h 55m
Length of Day
14h 00m
Full, 97% of the Moon is Illuminated
May 20
Full
May 26
Last Quarter
Jun 3
New
Jun 10
First Quarter
Jun 17
Full

Hourly Weather History & Observations

Time (CET) Temp. Dew Point Humidity Pressure Visibility Wind Dir Wind Speed Gust Speed Precip Events Conditions
12:00 AM 57.2 °F 46.4 °F 67% 30.06 in - North 11.5 mph - N/A   Clear
1:00 AM 53.6 °F 46.4 °F 77% 30.06 in - NNE 11.5 mph - N/A   Clear
2:00 AM 53.6 °F 46.4 °F 77% 30.06 in - North 9.2 mph - N/A   Clear
3:00 AM 51.8 °F 46.4 °F 82% 30.06 in - North 6.9 mph - N/A   Clear
4:00 AM 51.8 °F 48.2 °F 88% 30.06 in - North 4.6 mph - N/A   Clear
6:00 AM 50.0 °F 46.4 °F 87% 30.04 in - North 4.6 mph - N/A   Clear
7:00 AM 51 °F 48 °F 85%  in 6 mi Calm Calm - -   Partly Cloudy
7:00 AM 51.8 °F 48.2 °F 88% 30.06 in - Calm Calm - N/A   Clear
8:00 AM 55.4 °F 50.0 °F 82% 30.06 in - Calm Calm - N/A   Clear
9:00 AM 60.8 °F 48.2 °F 63% 30.06 in - Calm Calm - N/A   Clear
10:00 AM 63 °F 49 °F 50%  in 6 mi Calm Calm - -   Partly Cloudy
10:00 AM 62.6 °F 50.0 °F 63% 30.09 in - Calm Calm - N/A   Clear
11:00 AM 68.0 °F 51.8 °F 56% 30.09 in - SE 9.2 mph - N/A   Clear
12:00 PM 71.6 °F 53.6 °F 53% 30.09 in - South 2.3 mph - N/A   Clear
1:00 PM 74 °F 52 °F 36%  in 6 mi East 4.6 mph - -   Scattered Clouds
1:00 PM 73.4 °F 51.8 °F 47% 30.06 in - East 4.6 mph - N/A   Clear
2:00 PM 75.2 °F 51.8 °F 44% 30.06 in - ESE 6.9 mph - N/A   Clear
3:00 PM 75.2 °F 50.0 °F 41% 30.04 in - SW 6.9 mph - N/A   Clear
4:00 PM 78 °F 50 °F 27%  in 6 mi WNW 6.9 mph - -   Scattered Clouds
4:00 PM 77.0 °F 50.0 °F 39% 30.04 in - WNW 6.9 mph - N/A   Clear
5:00 PM 78.8 °F 50.0 °F 36% 30.01 in 6.2 mi West 6.9 mph - N/A   Partly Cloudy
6:00 PM 78.8 °F 48.2 °F 34% 30.01 in 6.2 mi Calm Calm - N/A   Partly Cloudy
7:00 PM 78 °F 50 °F 26%  in 6 mi ENE 6.9 mph - -   Scattered Clouds
7:00 PM 77.0 °F 50.0 °F 39% 30.01 in 6.2 mi ENE 6.9 mph - N/A   Partly Cloudy
9:00 PM 71.6 °F 48.2 °F 43% 30.04 in 6.2 mi Calm Calm - N/A   Scattered Clouds